Regional Weather Roundup
Issued by NWS

Home | Current Version | Previous Version | Graphics & Text | Print | Product List | Glossary On
Versions: 1 2 3 4 5 6 7 8 9 10 11 12 13 14 15 16 17 18 19 20 21 22 23 24 25 26 27 28 29 30 31 32 33 34 35 36 37 38 39 40 41 42 43 44 45 46 47 48 49 50
363
ASUS43 KBIS 261302
RWRND

NORTH DAKOTA REGIONAL WEATHER ROUNDUP
NATIONAL WEATHER SERVICE BISMARCK ND
800 AM CDT TUE JUL 26 2016

NOTE: "FAIR" INDICATES FEW OR NO CLOUDS BELOW 12,000 FEET WITH NO
SIGNIFICANT WEATHER AND/OR OBSTRUCTIONS TO VISIBILITY.


NDZ001>003-009>011-017-261400-
NORTHWEST NORTH DAKOTA

CITY           SKY/WX    TMP DP  RH WIND       PRES   REMARKS
WILLISTON      CLOUDY    68  60  75 W3        30.07R
MINOT          SUNNY     68  63  84 NW6       30.01R
MINOT AFB      SUNNY     65  62  89 N5        30.00S
$$

NDZ018>021-031>035-040>046-261400-
SOUTHWEST NORTH DAKOTA

CITY           SKY/WX    TMP DP  RH WIND       PRES   REMARKS
BISMARCK       SUNNY     71  67  87 NE13      29.97R
DICKINSON      CLOUDY    65  63  93 NW12G30   30.07R
GARRISON         N/A     70  66  87 NE3       30.01R
HETTINGER ARPT CLOUDY    67  64  90 W13       30.07R
$$

NDZ004>008-012>016-024-026-027-054-261400-
NORTHEAST NORTH DAKOTA

CITY           SKY/WX    TMP DP  RH WIND       PRES   REMARKS
GRAND FORKS    CLOUDY    71  63  75 NE3       29.95R
GRND FRKS AFB  CLOUDY    68  66  93 N3        29.97R
DEVILS LAKE    SUNNY     69  66  90 CALM      30.01R
$$

NDZ022-023-025-028>030-036>039-047>053-261400-
SOUTHEAST NORTH DAKOTA

CITY           SKY/WX    TMP DP  RH WIND       PRES   REMARKS
FARGO          CLOUDY    70  63  78 CALM      29.94F
JAMESTOWN      CLOUDY    69  67  93 N5        29.96F
$$





USA.gov is the U.S. government's official web portal to all federal, state and local government web resources and services.